TimeMDT,TemperatureF,Dew PointF,Humidity,Sea Level PressureIn,VisibilityMPH,Wind Direction,Wind SpeedMPH,Gust SpeedMPH,PrecipitationIn,Events,Conditions,WindDirDegrees,DateUTC
12:51 AM,34.0,26.1,73,30.12,10.0,Calm,Calm,-,N/A,,Clear,0,2013-10-20 06:51:00
1:51 AM,30.9,25.0,79,30.13,10.0,Calm,Calm,-,N/A,,Clear,0,2013-10-20 07:51:00
2:51 AM,28.9,23.0,78,30.13,10.0,Calm,Calm,-,N/A,,Clear,0,2013-10-20 08:51:00
3:51 AM,28.0,23.0,81,30.13,10.0,Calm,Calm,-,N/A,,Clear,0,2013-10-20 09:51:00
4:51 AM,28.0,21.9,78,30.12,10.0,Calm,Calm,-,N/A,,Clear,0,2013-10-20 10:51:00
5:51 AM,27.0,21.9,81,30.13,10.0,Calm,Calm,-,N/A,,Clear,0,2013-10-20 11:51:00
6:51 AM,27.0,21.9,81,30.16,10.0,ENE,3.5,-,N/A,,Clear,60,2013-10-20 12:51:00
7:51 AM,26.1,21.9,84,30.18,10.0,NE,4.6,-,N/A,,Clear,50,2013-10-20 13:51:00
8:51 AM,27.0,21.9,81,30.20,10.0,Calm,Calm,-,N/A,,Clear,0,2013-10-20 14:51:00
9:51 AM,35.1,27.0,72,30.19,10.0,Calm,Calm,-,N/A,,Clear,0,2013-10-20 15:51:00
10:51 AM,42.1,30.0,62,30.16,10.0,Calm,Calm,-,N/A,,Clear,0,2013-10-20 16:51:00
11:51 AM,50.0,30.9,48,30.14,10.0,Calm,Calm,-,N/A,,Clear,0,2013-10-20 17:51:00
12:51 PM,55.0,30.0,38,30.13,10.0,WNW,6.9,-,N/A,,Clear,290,2013-10-20 18:51:00
1:51 PM,57.0,30.9,37,30.12,10.0,WNW,12.7,-,N/A,,Clear,290,2013-10-20 19:51:00
2:51 PM,57.0,30.0,36,30.12,10.0,West,8.1,-,N/A,,Clear,270,2013-10-20 20:51:00
3:51 PM,59.0,30.9,35,30.11,10.0,NW,8.1,17.3,N/A,,Clear,320,2013-10-20 21:51:00
4:51 PM,57.9,30.0,35,30.12,10.0,NW,6.9,-,N/A,,Clear,310,2013-10-20 22:51:00
5:51 PM,55.9,30.0,37,30.13,10.0,NNW,5.8,-,N/A,,Clear,330,2013-10-20 23:51:00
6:51 PM,52.0,28.9,41,30.15,10.0,NW,6.9,-,N/A,,Clear,320,2013-10-21 00:51:00
7:51 PM,48.9,30.9,50,30.17,10.0,North,5.8,-,N/A,,Clear,360,2013-10-21 01:51:00
8:51 PM,46.0,30.0,54,30.19,10.0,NNE,8.1,-,N/A,,Clear,30,2013-10-21 02:51:00
9:51 PM,46.0,30.0,54,30.17,10.0,North,8.1,-,N/A,,Clear,360,2013-10-21 03:51:00
10:51 PM,43.0,32.0,65,30.17,10.0,NW,4.6,-,N/A,,Clear,310,2013-10-21 04:51:00
11:51 PM,43.0,30.9,62,30.15,10.0,North,4.6,-,N/A,,Clear,360,2013-10-21 05:51:00